| time (UTC) | temp C | wind direction | speed KPH | gust KPH | rain 1hr cm | rain 24hr cm | rain mn cm | humidity % | barometer mb |
| 20260508100047 | 0 | 309 | 0.0 | 0.0 | 0.00 | 0.00 | 0.00 | 91 | 1005.7 |
| 20260508094550 | 0 | 309 | 0.0 | 0.0 | 0.00 | 0.00 | 0.00 | 91 | 1005.5 |
| 20260508093044 | 0 | 309 | 0.0 | 0.0 | 0.00 | 0.00 | 0.00 | 90 | 1005.4 |
| 20260508091543 | 0 | 309 | 0.0 | 0.0 | 0.00 | 0.00 | 0.00 | 90 | 1005.2 |
| 20260508090041 | 0 | 309 | 0.0 | 0.0 | 0.00 | 0.00 | 0.00 | 90 | 1005.0 |
| 20260508084540 | 0 | 309 | 0.0 | 0.0 | 0.00 | 0.00 | 0.00 | 90 | 1005.0 |
| 20260508083039 | 0 | 309 | 0.0 | 0.0 | 0.00 | 0.00 | 0.00 | 90 | 1005.0 |
| 20260508081538 | 0 | 309 | 0.0 | 0.0 | 0.00 | 0.00 | 0.00 | 90 | 1005.1 |
| 20260508080045 | 0 | 309 | 0.0 | 0.0 | 0.00 | 0.00 | 0.00 | 90 | 1004.9 |
| 20260508074537 | 0 | 309 | 0.0 | 0.0 | 0.00 | 0.03 | 0.00 | 89 | 1004.8 |
| 20260508073035 | 0 | 309 | 0.0 | 0.0 | 0.00 | 0.03 | 0.00 | 89 | 1004.6 |
| 20260508071534 | 0 | 309 | 0.0 | 0.0 | 0.00 | 0.03 | 0.00 | 89 | 1004.7 |
| 20260508070031 | 0 | 309 | 0.0 | 0.0 | 0.00 | 0.03 | 0.00 | 88 | 1004.7 |
| 20260508064530 | 0 | 309 | 0.0 | 1.6 | 0.00 | 0.13 | 0.00 | 88 | 1004.7 |
| 20260508063029 | 0 | 309 | 0.0 | 0.0 | 0.00 | 0.13 | 0.00 | 87 | 1004.7 |
| 20260508061528 | 0 | 309 | 0.0 | 0.0 | 0.00 | 0.13 | 0.00 | 86 | 1004.8 |
| 20260508060027 | 1 | 309 | 0.0 | 0.0 | 0.00 | 0.13 | 0.00 | 86 | 1004.9 |
| 20260508054522 | 1 | 309 | 0.0 | 0.0 | 0.00 | 0.43 | 0.00 | 85 | 1005.0 |
| 20260508053020 | 1 | 309 | 0.0 | 0.0 | 0.00 | 0.43 | 0.00 | 83 | 1005.0 |
| 20260508051525 | 2 | 309 | 0.0 | 0.0 | 0.00 | 0.43 | 0.00 | 79 | 1005.0 |
| 20260508050015 | 2 | 334 | 0.0 | 11.3 | 0.00 | 0.43 | 0.00 | 78 | 1005.1 |
| 20260508044513 | 2 | 342 | 3.2 | 11.3 | 0.00 | 0.43 | 0.00 | 83 | 1005.3 |
| 20260508043014 | 2 | 319 | 3.2 | 6.4 | 0.00 | 0.43 | 0.00 | 84 | 1005.3 |
| 20260508041506 | 2 | 318 | 0.0 | 0.0 | 0.00 | 0.43 | 0.00 | 83 | 1005.4 |
| 20260508040011 | 2 | 318 | 0.0 | 0.0 | 0.00 | 0.48 | 0.43 | 81 | 1005.5 |
| 20260508034600 | 3 | 318 | 0.0 | 4.8 | 0.00 | 0.48 | 0.43 | 76 | 1005.6 |
| 20260508033059 | 4 | 318 | 3.2 | 11.3 | 0.00 | 0.48 | 0.43 | 71 | 1005.6 |
| 20260508031555 | 4 | 316 | 1.6 | 8.0 | 0.00 | 0.48 | 0.43 | 71 | 1005.4 |
| 20260508030100 | 5 | 5 | 1.6 | 8.0 | 0.00 | 0.48 | 0.43 | 67 | 1005.3 |
| 20260508024550 | 6 | 5 | 3.2 | 11.3 | 0.00 | 0.69 | 0.43 | 68 | 1005.0 |
| 20260508023045 | 6 | 325 | 3.2 | 9.7 | 0.00 | 0.69 | 0.43 | 62 | 1004.8 |
| 20260508021543 | 7 | 335 | 4.8 | 11.3 | 0.00 | 0.69 | 0.43 | 59 | 1005.0 |
| 20260508020046 | 8 | 333 | 4.8 | 11.3 | 0.00 | 0.69 | 0.43 | 54 | 1005.0 |
| 20260508014542 | 8 | 327 | 6.4 | 12.9 | 0.00 | 1.12 | 0.43 | 52 | 1005.1 |
| 20260508013040 | 9 | 346 | 8.0 | 19.3 | 0.00 | 1.12 | 0.43 | 51 | 1005.1 |
| 20260508011543 | 9 | 339 | 4.8 | 19.3 | 0.00 | 1.12 | 0.43 | 51 | 1005.0 |
| 20260508010037 | 10 | 338 | 11.3 | 22.5 | 0.00 | 1.12 | 0.43 | 51 | 1004.8 |
| 20260508004536 | 10 | 312 | 9.7 | 22.5 | 0.00 | 1.45 | 0.43 | 53 | 1004.8 |
| 20260508003038 | 10 | 9 | 8.0 | 24.1 | 0.00 | 1.45 | 0.43 | 56 | 1004.4 |
| 20260508001536 | 8 | 333 | 8.0 | 16.1 | 0.00 | 1.45 | 0.43 | 77 | 1004.3 |
| 20260508000032 | 8 | 239 | 0.0 | 3.2 | 0.00 | 1.45 | 0.43 | 83 | 1003.9 |
| 20260507234532 | 9 | 220 | 0.0 | 0.0 | 0.00 | 1.80 | 0.43 | 80 | 1003.4 |
| 20260507233034 | 10 | 220 | 0.0 | 0.0 | 0.00 | 1.80 | 0.43 | 77 | 1003.2 |
| 20260507231538 | 10 | 220 | 0.0 | 3.2 | 0.00 | 1.80 | 0.43 | 77 | 1002.9 |
| 20260507230030 | 10 | 222 | 0.0 | 8.0 | 0.00 | 1.80 | 0.43 | 77 | 1002.8 |
| 20260507224530 | 10 | 134 | 0.0 | 8.0 | 0.00 | 1.96 | 0.43 | 77 | 1002.5 |
| 20260507223030 | 11 | 157 | 1.6 | 8.0 | 0.00 | 1.96 | 0.43 | 75 | 1002.3 |
| 20260507221531 | 11 | 182 | 0.0 | 3.2 | 0.00 | 1.96 | 0.43 | 72 | 1002.3 |
| 20260507220028 | 12 | 148 | 0.0 | 11.3 | 0.00 | 1.96 | 0.43 | 68 | 1002.5 |
| 20260507214529 | 13 | 199 | 3.2 | 12.9 | 0.00 | 2.03 | 0.43 | 67 | 1002.5 |
| 20260507213029 | 12 | 225 | 3.2 | 14.5 | 0.00 | 2.03 | 0.43 | 67 | 1002.5 |
| 20260507211526 | 13 | 212 | 1.6 | 12.9 | 0.00 | 2.03 | 0.43 | 65 | 1002.5 |
| 20260507210025 | 13 | 230 | 8.0 | 20.9 | 0.00 | 2.03 | 0.43 | 66 | 1002.4 |
| 20260507204525 | 13 | 224 | 0.0 | 16.1 | 0.00 | 2.03 | 0.43 | 67 | 1002.3 |
| 20260507203026 | 13 | 174 | 3.2 | 16.1 | 0.00 | 2.03 | 0.43 | 67 | 1002.2 |
| 20260507201524 | 13 | 252 | 6.4 | 19.3 | 0.00 | 2.03 | 0.43 | 63 | 1002.1 |
| 20260507200029 | 15 | 234 | 4.8 | 17.7 | 0.00 | 2.03 | 0.43 | 62 | 1002.2 |
| 20260507194523 | 14 | 300 | 4.8 | 19.3 | 0.00 | 2.03 | 0.43 | 66 | 1002.2 |
| 20260507193023 | 14 | 205 | 6.4 | 14.5 | 0.00 | 2.03 | 0.43 | 66 | 1002.2 |
| 20260507191521 | 13 | 205 | 1.6 | 14.5 | 0.00 | 2.03 | 0.43 | 66 | 1002.2 |
| 20260507190020 | 13 | 173 | 3.2 | 20.9 | 0.00 | 2.03 | 0.43 | 72 | 1002.3 |
| 20260507184519 | 13 | 129 | 3.2 | 16.1 | 0.00 | 2.03 | 0.43 | 74 | 1002.4 |
| 20260507183033 | 13 | 168 | 6.4 | 19.3 | 0.00 | 2.03 | 0.43 | 72 | 1002.5 |
| 20260507181517 | 13 | 154 | 9.7 | 20.9 | 0.00 | 2.03 | 0.43 | 69 | 1002.6 |
| 20260507180031 | 14 | 148 | 6.4 | 19.3 | 0.00 | 2.03 | 0.43 | 70 | 1002.7 |
| 20260507174518 | 14 | 191 | 1.6 | 22.5 | 0.00 | 2.03 | 0.43 | 68 | 1002.9 |
| 20260507173015 | 13 | 166 | 1.6 | 16.1 | 0.00 | 2.03 | 0.43 | 70 | 1002.7 |
| 20260507171513 | 15 | 200 | 4.8 | 14.5 | 0.00 | 2.03 | 0.43 | 63 | 1002.7 |
| 20260507170016 | 16 | 171 | 6.4 | 16.1 | 0.00 | 2.03 | 0.43 | 60 | 1002.8 |
| 20260507164513 | 15 | 194 | 4.8 | 12.9 | 0.00 | 2.03 | 0.43 | 60 | 1003.1 |
| 20260507163011 | 16 | 234 | 8.0 | 14.5 | 0.00 | 2.03 | 0.43 | 55 | 1003.0 |
| 20260507161508 | 15 | 240 | 0.0 | 9.7 | 0.00 | 2.03 | 0.43 | 56 | 1003.2 |
| 20260507160005 | 15 | 30 | 3.2 | 14.5 | 0.00 | 2.03 | 0.43 | 55 | 1003.4 |
| 20260507154503 | 14 | 322 | 11.3 | 19.3 | 0.00 | 2.03 | 0.43 | 56 | 1003.8 |
| 20260507153002 | 14 | 299 | 6.4 | 14.5 | 0.00 | 2.03 | 0.43 | 57 | 1003.9 |
| 20260507151558 | 13 | 326 | 8.0 | 16.1 | 0.00 | 2.03 | 0.43 | 57 | 1004.0 |
| 20260507144552 | 13 | 355 | 6.4 | 16.1 | 0.00 | 2.03 | 0.43 | 65 | 1004.3 |
| 20260507143055 | 12 | 327 | 1.6 | 11.3 | 0.00 | 2.03 | 0.43 | 64 | 1004.4 |
| 20260507141552 | 12 | 5 | 4.8 | 12.9 | 0.00 | 2.03 | 0.43 | 68 | 1004.5 |
| 20260507140042 | 12 | 306 | 3.2 | 11.3 | 0.00 | 2.03 | 0.43 | 68 | 1004.7 |
| 20260507134547 | 12 | 333 | 4.8 | 14.5 | 0.00 | 2.03 | 0.43 | 72 | 1004.8 |
| 20260507133035 | 11 | 28 | 6.4 | 16.1 | 0.00 | 2.03 | 0.43 | 73 | 1005.2 |
| 20260507131536 | 11 | 17 | 8.0 | 20.9 | 0.00 | 2.03 | 0.43 | 78 | 1004.9 |
| 20260507130032 | 10 | 294 | 8.0 | 17.7 | 0.00 | 2.03 | 0.43 | 78 | 1004.9 |
| 20260507124527 | 10 | 14 | 6.4 | 17.7 | 0.00 | 2.03 | 0.43 | 81 | 1004.7 |
| 20260507123023 | 9 | 11 | 3.2 | 11.3 | 0.00 | 2.03 | 0.43 | 85 | 1004.7 |
| 20260507121521 | 8 | 12 | 3.2 | 12.9 | 0.00 | 2.03 | 0.43 | 86 | 1004.7 |
| 20260507120019 | 8 | 346 | 3.2 | 8.0 | 0.00 | 2.03 | 0.43 | 89 | 1005.0 |
| 20260507114525 | 7 | 336 | 1.6 | 9.7 | 0.00 | 2.03 | 0.43 | 90 | 1005.2 |
| 20260507113014 | 7 | 322 | 0.0 | 0.0 | 0.00 | 2.03 | 0.43 | 91 | 1006.2 |
| 20260507111519 | 7 | 322 | 0.0 | 8.0 | 0.00 | 2.03 | 0.43 | 91 | 1006.1 |
| 20260507110010 | 7 | 321 | 1.6 | 9.7 | 0.00 | 2.03 | 0.43 | 92 | 1005.6 |
| 20260507104508 | 7 | 355 | 4.8 | 9.7 | 0.00 | 2.03 | 0.43 | 92 | 1005.4 |
| 20260507103004 | 7 | 313 | 1.6 | 6.4 | 0.00 | 2.03 | 0.43 | 93 | 1005.0 |
| 20260507101507 | 7 | 314 | 0.0 | 9.7 | 0.00 | 2.03 | 0.43 | 93 | 1004.4 |